RH
70 64 70 84 79 82 75 66 55 59 62 60 55 61 65 70 66 78 88 82 82 86 80 87 78 76 76 67 71 78 78 76 78 78 76 77 77 77 78 77 77 75 76 74 73 74 74 74 72
66 53 78 90 84 82 79 62 65 63 61 55 56 58 66 79 74 90 87 79 78 82 85 83 76 75 68 67 76 78 76 77 78 77 78 77 77 77 77 76 77 75 74 76 74 74 72 73 73
49 54 82 87 85 80 75 62 62 56 54 57 64 59 67 85 78 82 81 75 78 85 88 83 73 74 70 72 73 74 75 74 78 79 76 76 76 76 76 76 75 77 76 74 72 71 72 71 71
60 77 84 82 75 57 58 58 56 60 50 55 57 73 67 64 71 76 72 75 84 87 83 68 73 70 69 66 63 65 67 72 76 76 76 74 76 78 76 76 76 76 76 74 72 72 73 72 72
75 77 87 86 81 63 51 48 56 62 61 60 57 73 80 67 71 73 76 78 87 89 85 74 66 65 70 69 73 71 75 68 79 79 77 74 76 76 76 76 74 75 75 73 75 76 75 72 74
68 83 90 95 83 66 49 49 52 60 59 53 56 74 84 72 72 75 80 88 89 89 86 75 69 71 70 76 74 72 72 80 77 75 75 76 74 73 74 75 74 72 71 72 72 74 74 73 70
76 89 93 90 86 86 59 46 50 53 56 58 52 84 90 79 79 82 88 92 91 91 90 91 84 75 66 74 78 76 75 77 74 74 73 74 74 72 69 67 65 66 69 70 71 71 69 67 65
84 88 86 86 82 80 60 52 45 46 53 45 51 85 94 84 83 88 91 95 96 96 93 92 92 90 90 86 75 73 74 73 76 74 74 73 72 71 75 78 70 65 63 64 64 65 66 66 66
68 91 92 80 73 71 63 59 43 42 47 45 47 67 65 79 80 89 93 94 96 96 96 94 94 91 94 93 79 76 73 72 74 74 75 89 93 87 83 74 70 69 69 69 70 70 70 68 70
77 84 80 68 67 68 61 54 50 49 50 57 68 69 73 75 80 87 92 97 96 99 98 96 96 94 93 78 92 92 88 92 92 91 90 95 92 88 78 79 70 70 69 70 70 71 71 76 78
80 80 65 62 62 58 57 57 52 51 56 57 66 78 76 79 79 81 83 89 94 96 96 96 96 95 93 90 96 98 97 96 96 92 92 89 87 89 90 88 92 89 77 80 75 75 74 76 77
74 70 62 55 58 62 61 60 53 49 53 46 59 68 74 78 81 82 80 85 87 94 94 96 96 96 95 97 98 97 97 94 92 92 90 91 90 89 90 88 86 88 84 84 81 79 80 78 77
73 63 67 60 59 57 56 58 67 63 48 54 61 66 72 73 74 74 72 80 84 91 92 95 96 96 96 96 98 97 94 94 89 88 87 89 89 90 89 86 83 83 83 82 83 82 79 80 75
58 64 64 63 60 54 54 60 59 63 55 61 67 75 71 70 70 73 77 84 85 86 89 93 95 94 94 97 96 96 92 88 88 87 86 87 88 88 84 82 82 83 83 82 82 83 79 77 73
61 69 65 66 63 61 60 71 70 60 53 65 69 73 71 69 66 71 74 75 78 83 84 92 93 92 93 95 94 95 91 83 86 86 86 86 86 85 82 85 87 85 85 80 81 76 78 74 62
67 69 78 67 67 63 60 77 69 66 55 62 62 67 70 71 68 66 66 69 75 79 86 90 75 86 92 94 90 93 93 86 85 92 86 81 83 82 84 88 87 84 84 82 84 81 82 75 68
67 82 78 66 67 71 60 72 67 71 53 58 55 55 54 63 66 63 61 64 70 76 84 90 86 86 91 90 93 93 87 86 89 92 89 84 82 80 90 87 87 84 83 85 81 82 79 78 71
66 73 72 68 66 70 72 72 76 75 68 64 51 50 50 54 58 55 59 61 65 72 82 84 86 86 90 86 94 94 92 89 89 93 88 84 86 85 92 89 87 85 86 80 81 82 80 84 83
38 50 61 54 64 69 82 78 71 72 72 75 76 66 57 50 50 56 60 59 64 68 84 84 86 91 89 93 96 96 94 95 90 88 83 82 86 86 90 91 87 86 85 84 85 88 80 80 85
23 25 26 54 64 68 82 82 70 76 67 66 71 71 61 55 58 64 62 60 64 71 79 82 82 94 87 87 95 91 89 89 90 87 86 82 83 87 91 90 87 85 80 86 86 86 81 87 92
16 21 29 39 75 74 73 71 78 73 68 62 65 67 66 59 54 64 64 64 64 72 77 78 82 91 87 93 95 97 94 95 93 93 93 84 85 84 92 89 90 86 93 93 88 81 81 86 89
15 13 14 64 76 81 70 77 61 72 79 66 58 67 65 69 56 65 58 67 66 68 73 77 81 90 90 94 93 91 89 87 86 85 87 84 85 84 86 88 85 86 94 95 92 81 90 84 81
13 19 37 73 67 66 71 81 68 76 75 74 69 58 66 58 57 63 56 62 64 66 71 74 84 89 89 92 91 90 90 91 86 91 88 89 88 87 85 92 91 91 88 89 92 86 92 92 86
16 28 31 54 71 74 52 77 66 48 68 69 68 60 60 60 56 62 54 56 59 58 69 74 85 89 91 92 92 90 89 90 93 90 91 89 88 86 87 89 92 91 84 88 86 90 90 91 90
20 31 53 73 86 85 54 68 61 44 54 61 63 66 56 61 58 56 66 66 63 65 70 74 84 86 89 88 89 90 89 90 89 87 85 93 90 88 89 92 97 95 89 86 91 95 94 95 95
22 32 33 38 41 38 44 50 37 53 63 70 68 69 61 63 62 58 63 73 70 66 67 73 81 82 87 87 87 91 92 87 86 85 86 86 86 85 86 89 93 93 90 91 92 97 88 89 88
23 25 25 36 49 39 44 58 47 52 62 69 72 68 70 67 68 66 67 65 78 72 67 69 81 81 83 83 85 90 89 92 87 91 88 86 88 82 85 86 87 89 91 91 92 87 90 89 88
20 23 29 40 38 48 58 74 65 62 59 56 70 78 75 74 74 73 69 70 70 77 81 76 78 80 79 79 82 82 87 89 87 90 90 90 88 88 90 88 88 89 90 92 93 89 88 91 87
23 33 44 46 54 58 73 70 62 57 55 60 81 79 84 77 78 77 80 79 78 84 75 68 70 70 75 76 81 82 85 88 91 89 86 90 91 90 91 91 91 91 92 92 94 93 90 91 92
24 28 39 33 40 70 60 47 45 54 53 64 80 81 88 82 81 83 84 87 86 86 85 80 72 70 84 80 85 84 85 88 87 89 88 88 91 92 91 92 93 92 91 92 93 91 91 93 92
Wind_Speed
5 4 2 2 3 5 2 3 2 2 1 4 4 1 6 4 2 3 1 2 7 7 6 6 11 10 4 3 5 6 9 10 10 12 12 11 10 10 11 12 11 12 12 13 12 11 14 14 15
3 4 2 2 5 3 3 2 1 2 5 7 7 4 7 4 2 5 2 4 7 7 6 6 9 8 10 5 6 7 10 9 10 11 12 11 11 11 9 10 12 10 13 13 13 14 15 15 14
2 1 2 4 3 2 2 2 4 7 5 2 5 6 3 1 3 4 4 7 7 6 5 6 9 8 10 10 10 11 9 9 9 11 10 10 11 10 11 12 11 11 12 12 14 13 13 13 12
2 3 3 5 4 2 4 6 3 2 4 7 9 7 5 4 4 5 7 8 7 5 5 8 11 11 12 11 14 13 11 6 7 10 10 9 9 10 10 11 12 13 12 13 12 12 12 12 12
3 2 4 5 5 8 7 8 3 1 4 6 2 5 3 3 9 9 7 7 8 5 4 6 8 11 11 12 14 15 4 1 7 10 10 10 10 10 10 13 12 13 12 11 10 9 10 12 11
3 2 4 3 4 7 5 7 3 2 5 5 8 6 2 6 8 6 7 5 4 5 4 5 9 10 10 13 13 16 12 8 8 11 11 10 10 12 12 12 11 12 10 9 8 8 9 10 8
5 3 4 3 5 8 5 1 7 4 5 5 5 5 1 4 5 7 7 6 5 3 4 3 2 6 6 9 11 11 10 7 9 10 11 10 10 11 12 11 10 9 8 7 6 7 6 7 5
4 4 3 1 4 3 4 3 8 6 4 7 8 5 6 4 8 8 8 6 6 4 2 2 3 4 4 3 6 8 8 7 9 10 10 10 9 10 10 8 8 8 8 7 6 5 4 4 4
1 4 2 2 5 3 3 7 6 3 11 3 2 5 6 13 11 7 6 4 3 3 4 2 2 5 4 4 4 5 6 7 7 7 8 8 4 5 6 4 6 5 5 3 3 3 3 2 3
2 3 7 4 5 3 0 5 9 4 6 3 4 7 14 12 9 10 8 6 4 4 2 2 1 2 3 3 5 4 4 4 4 4 5 4 3 3 3 3 2 2 1 2 3 2 1 2 1
1 2 4 5 6 2 1 2 0 10 5 5 8 10 14 10 7 5 5 6 6 4 4 4 3 3 3 3 3 2 2 2 2 3 3 2 3 2 2 2 2 2 4 1 2 3 2 2 2
1 4 5 8 7 3 2 2 2 11 4 7 10 15 12 11 9 8 6 6 8 6 6 6 5 4 4 2 2 2 2 2 1 1 2 1 1 2 1 1 2 3 2 4 2 2 4 4 5
3 1 4 0 9 5 5 4 3 2 8 12 13 12 13 12 9 6 5 4 5 6 6 6 6 5 4 3 2 2 1 2 1 1 1 2 1 1 2 2 2 2 3 3 3 4 4 4 5
6 5 3 5 5 3 4 2 2 2 12 14 14 12 11 13 13 5 7 6 6 5 6 6 6 6 5 4 4 3 2 2 1 1 3 4 2 2 2 3 3 3 3 3 3 3 3 3 2
6 5 2 2 3 4 4 1 3 5 13 15 13 12 11 10 9 12 9 10 8 5 5 7 7 6 6 6 5 4 3 2 2 3 3 4 4 3 2 2 3 3 2 4 1 1 2 2 1
4 4 2 4 6 4 5 5 6 7 16 13 12 11 12 12 15 13 10 7 6 6 7 6 8 7 6 5 5 4 3 3 3 3 2 2 4 4 3 2 3 2 2 1 2 2 1 1 0
3 2 4 1 7 3 6 5 6 7 13 11 13 13 14 13 12 11 11 9 9 9 7 7 6 7 7 5 3 3 3 3 3 2 2 4 4 4 3 2 1 1 2 2 2 2 1 1 1
5 3 2 5 5 3 6 5 1 4 8 11 13 14 13 14 18 14 13 11 9 9 8 6 5 5 6 3 2 2 1 2 2 3 2 3 2 4 3 2 1 0 2 2 1 2 3 2 1
4 3 5 3 8 6 7 3 7 7 5 7 7 10 10 14 14 15 14 12 10 9 9 9 8 6 5 2 3 2 2 2 2 3 3 4 3 4 4 2 1 0 1 2 2 1 3 3 2
2 2 5 3 6 4 3 8 7 9 11 13 12 9 7 8 10 12 13 13 13 13 11 9 10 7 6 4 3 3 3 2 2 2 3 4 4 4 4 4 3 3 2 2 2 2 0 1 3
3 5 4 4 4 3 2 7 5 5 4 8 8 7 7 10 13 12 14 14 13 13 14 13 12 10 8 6 3 3 3 2 2 1 3 4 5 5 4 5 4 4 3 3 2 2 3 1 2
3 8 6 7 6 3 3 6 5 3 8 9 11 12 11 9 9 11 14 14 15 15 11 11 11 10 8 7 5 5 5 4 4 4 3 3 5 5 5 4 4 4 3 3 2 2 1 2 2
10 1 5 4 5 5 1 2 8 1 4 8 11 12 11 11 11 13 17 18 16 13 13 11 10 9 9 10 9 5 4 3 2 3 4 4 3 4 4 5 5 4 3 3 3 3 3 2 2
5 6 9 6 4 3 4 5 8 3 3 4 5 13 14 12 11 13 14 13 13 11 9 10 10 10 10 11 10 10 9 6 4 3 3 3 3 3 4 4 3 4 4 4 3 3 4 3 2
6 6 4 4 3 6 2 5 10 5 4 7 10 10 14 14 13 15 13 12 12 14 14 11 11 11 11 12 11 10 9 7 8 7 5 5 3 3 5 5 5 5 4 4 3 3 4 4 3
4 6 8 6 5 5 4 5 6 3 5 3 3 3 9 11 10 14 15 13 13 15 13 12 12 12 12 13 13 10 8 6 6 7 5 5 5 5 5 5 5 6 5 4 3 3 3 3 3
4 2 4 9 4 4 3 6 6 4 3 3 4 5 8 9 9 13 12 14 12 13 14 13 7 10 9 12 10 9 9 7 7 7 5 4 5 5 6 6 7 6 6 6 4 4 4 3 3
5 7 4 4 5 3 4 4 5 3 4 5 6 5 1 6 8 8 11 12 12 9 7 11 11 11 9 9 9 9 9 8 8 6 7 6 6 6 6 7 6 6 6 5 5 4 5 4 4
2 1 7 6 4 7 3 7 7 7 4 1 2 2 4 6 7 7 6 6 7 6 12 15 15 14 10 12 12 11 9 8 6 8 8 7 5 6 7 7 7 7 7 7 6 6 5 6 5
4 5 6 7 4 1 3 7 3 6 4 2 3 0 2 2 7 8 9 10 12 13 12 13 9 14 16 12 9 9 5 6 9 9 8 7 7 5 7 5 7 7 7 7 8 8 6 8 7
Wind_Direction
174 153 156 82 67 65 342 1 84 75 105 332 92 91 124 43 103 200 27 113 109 115 135 162 147 196 186 152 138 122 112 109 114 107 111 107 111 102 98 110 115 107 110 103 100 107 104 102 101
157 161 55 93 84 77 301 358 117 18 125 99 72 51 46 68 61 100 101 94 102 116 129 149 179 185 137 142 116 104 94 104 107 103 109 108 101 99 105 113 108 118 108 103 113 104 105 102 103
186 207 98 105 111 113 147 68 116 133 169 90 105 53 61 50 56 119 99 119 110 115 127 156 151 141 138 128 114 88 92 96 108 111 110 107 105 106 110 110 114 111 105 115 107 108 103 106 105
178 9 30 77 51 41 137 148 133 122 65 70 116 72 68 97 163 127 128 114 99 104 117 145 144 140 118 121 107 76 64 113 118 121 110 113 110 105 105 110 108 104 108 105 110 109 111 102 93
35 62 60 70 11 331 90 136 131 41 84 27 30 98 68 42 102 105 112 122 126 123 123 129 140 132 138 134 123 92 99 38 116 110 97 98 96 99 90 84 89 98 98 101 107 118 104 93 81
53 78 58 110 20 344 44 135 100 55 66 105 82 91 78 123 115 114 114 112 105 118 110 129 146 150 151 140 129 137 154 159 124 98 90 93 88 85 79 85 84 87 97 104 107 97 83 78 69
104 82 111 120 75 359 313 120 134 139 109 75 114 76 9 125 122 114 116 120 112 106 108 122 116 157 131 117 119 129 131 124 97 93 92 99 94 96 87 84 89 99 107 111 109 92 80 74 67
92 92 105 164 130 225 276 316 121 130 65 107 150 173 193 186 135 113 109 109 126 129 107 100 62 89 82 111 108 110 105 100 109 92 89 85 85 93 94 69 94 106 113 114 111 98 84 71 54
72 72 140 170 136 230 240 187 143 128 134 178 172 149 159 134 129 108 100 94 102 140 151 188 138 119 109 98 120 107 105 102 92 97 86 65 56 65 66 78 93 101 98 102 90 83 78 67 51
76 108 187 183 177 216 6 131 143 118 150 37 64 69 112 140 145 150 153 151 144 156 164 137 169 86 83 90 72 74 53 63 61 67 66 74 62 61 68 37 35 20 25 11 14 343 318 101 147
157 144 136 174 186 175 52 89 279 148 192 205 171 145 138 158 163 163 171 157 172 161 155 174 171 156 154 99 96 94 72 70 66 63 64 67 64 32 33 339 350 337 325 340 345 324 315 302 248
253 199 163 159 196 156 215 94 56 165 196 139 163 151 146 170 184 187 185 168 158 162 172 171 177 175 149 108 107 98 99 88 74 93 109 90 31 2 340 307 323 333 330 320 334 309 296 294 282
211 343 156 295 163 168 129 72 132 346 123 123 136 156 173 173 199 190 167 172 167 165 165 176 166 171 163 140 139 130 132 117 148 59 307 197 248 289 298 304 312 298 293 280 290 278 281 277 279
180 93 39 111 148 119 149 92 89 116 131 139 153 175 185 185 194 193 168 184 189 168 173 166 178 174 169 154 170 167 172 195 244 256 247 240 217 226 264 297 302 299 277 289 278 264 275 286 301
101 83 58 86 156 168 126 344 210 150 152 158 171 180 192 204 188 212 198 195 185 185 177 176 178 173 182 167 169 176 193 193 267 259 264 229 209 213 254 301 299 279 288 272 356 313 291 312 33
77 69 135 206 158 205 135 242 224 164 158 175 179 188 193 203 208 206 203 198 170 181 183 179 190 180 178 175 167 183 192 198 247 245 231 224 218 200 241 265 280 299 307 355 15 3 39 323 229
4 204 203 274 193 126 178 233 214 164 167 173 189 194 202 208 214 215 209 189 176 175 178 184 188 186 178 180 176 193 210 217 242 242 220 247 225 180 199 254 269 318 333 18 347 20 64 147 350
192 223 216 236 196 212 199 248 335 174 172 182 192 196 201 199 210 203 197 190 175 173 171 187 182 186 177 153 152 170 203 245 223 208 193 205 184 169 189 198 182 0 3 333 352 4 31 67 42
154 199 236 247 174 143 219 187 211 196 200 197 207 210 198 199 205 197 189 183 173 171 167 186 173 191 160 162 152 159 197 181 232 216 195 214 202 168 194 202 172 215 239 278 302 19 360 35 47
194 280 262 290 144 138 181 246 196 192 211 202 200 221 211 190 177 188 185 179 182 181 180 179 191 175 191 185 168 155 160 169 158 183 212 224 203 199 184 185 194 190 206 234 247 172 103 356 30
213 197 229 198 118 15 52 310 176 214 239 194 207 193 200 184 187 180 183 185 181 186 185 183 187 185 187 195 128 94 89 86 103 196 209 215 193 208 189 204 195 191 194 216 233 190 156 212 58
237 203 227 166 137 187 118 274 298 211 216 204 198 198 198 183 195 176 185 186 191 193 187 178 185 183 189 168 193 171 177 164 192 188 187 192 190 206 197 193 199 199 206 199 217 191 151 130 220
228 143 188 123 102 103 346 66 268 169 245 229 213 203 198 192 184 184 191 195 194 180 186 188 175 185 181 188 192 195 183 182 165 147 178 196 209 217 183 193 202 196 220 212 191 180 190 183 169
126 84 50 55 69 4 221 147 287 259 205 289 219 200 193 187 186 188 203 196 191 182 178 182 180 190 185 187 194 196 200 191 169 166 194 205 202 214 215 202 208 220 220 217 215 204 190 201 163
82 62 28 23 24 214 10 92 245 295 270 238 253 215 196 182 178 188 190 191 186 189 186 180 179 198 193 194 199 203 205 194 195 187 187 174 189 203 218 194 198 224 227 245 224 221 218 204 200
160 153 148 176 182 233 82 224 249 243 298 334 327 201 157 176 173 184 190 189 195 191 186 188 192 196 191 197 204 205 203 203 209 201 187 193 195 202 193 198 197 223 224 232 214 226 233 222 223
175 153 170 101 10 69 252 290 319 355 14 46 84 123 161 177 174 180 191 196 193 188 194 186 194 216 197 204 203 204 204 194 204 216 193 194 199 198 196 194 202 220 220 217 184 236 247 241 241
140 152 81 12 131 201 294 278 236 297 331 48 14 49 202 175 186 183 191 198 198 188 170 169 201 205 212 204 204 206 207 209 208 204 215 205 209 192 186 201 206 208 211 219 195 214 233 238 243
79 46 53 110 109 152 167 256 215 207 218 29 116 354 293 205 192 196 198 190 186 185 181 194 202 207 193 199 202 200 200 200 209 212 213 221 207 197 203 196 207 213 206 204 205 214 222 231 242
123 144 130 123 225 74 148 265 217 222 263 280 108 113 314 191 177 173 179 174 181 190 191 217 205 196 195 226 192 198 188 199 206 219 219 204 220 214 214 199 212 209 201 201 207 213 207 216 228